Погода в Иволгинске

Россия / Республика Бурятия     51°44′45″N   107°16′31″E
темп.,
°C
ветер,
м/с
пор.,
м/с
влажн.,
%
обл.,
%
осадки,
мм/ч
давл.,
гПа
погр.,
м
6 мая, чт
чт623:000ссз71565100 0.0 10151193
02:00−2сз377796 0.0 1017337
05:00−3з238510 0.0 101889
08:00+2сз37589 0.0 10181010
11:00+5сз4544100 0.0 10161342
14:00+6зсз3438100 0.0 10141532
17:00+7з352990 0.0 10111189
20:00+4зюз1156100 0.0 101111
7 мая, пт
пт723:00+2юз2393100 0.6 1011281
02:00+3зюз2896100 2.6 1008827
05:00+4сз2109196 0.2 1008936
08:00+4ссз5106598 0.3 10091131
11:00+5ссз6105784 0.0 10101333
14:00+7ссз694778 0.0 10101775
17:00+8ссз684690 0.0 10101800
20:00+4сз3470100 0.0 1012106
8 мая, сб
сб823:00+1сз228422 0.0 101420
02:00−1ссз11835 0.0 101312
05:00−1ссв118979 0.0 101310
08:00+3юв116784 0.0 1012355
11:00+8ююз1241100 0.0 10101196
14:00+10ссз5537100 0.0 10091504
17:00+9ссз45506 0.0 10091242
20:00+5сз3674100 0.0 1012579
9 мая, вс
вс923:00+5зюз147599 0.0 1012369
02:00+4юз028550 0.0 101386
05:00+2сз119196 0.0 101431
08:00+5ссз1283100 0.0 1014426
11:00+10ссз254472 0.0 10111719
14:00+13сз563867 0.1 10102180
17:00+13ссз463642 0.0 10091932
20:00+8ссв22544 0.0 101019
10 мая, пн
пн1023:00+5с22665 0.0 101229
02:00+3ссз22742 0.0 101440
05:000ссз349111 0.0 1016103
08:00+4ссз357650 0.0 1016595
11:00+7с565926 0.0 1016832
14:00+9ссз5652100 0.0 10151024
17:00+9с565360 0.0 1016886
20:00+5ссз357713 0.0 1018323